Starlink 1958

operational
NORAD ID: 47559 Int'l Des: 2021-009 Owner: SPXS Country: US Constellation: starlink
LEOCIRCULARSTARLINK_TYPE

Starlink 1958について

説明を読み込み中...

リアルタイム位置

3D地球を読み込み中...

次回通過

高度履歴

Altitude vs Time

uPlot chart will show altitude changes over time

軌道要素

1 47559U 21009M 25293.22320684 -.00001239 00000-0 -64278-4 0 9998
2 47559 53.0564 272.1991 0001628 91.8627 268.2549 15.06403294259901
Epoch: Oct 20, 2025 • Age: 20 hours

現在のステータス

高度 547.5 km
速度 7.59 km/s
衛星直下点 24.77°N, 21.76°E
打ち上げ日 Feb 4, 2021
運用期間 4.7 years
タイプ internet

技術仕様

分類 Payload
質量 260.00 kg
乾燥質量 248.00 kg
総質量 260.00 kg
長さ 0.20 m
直径 2.80 m
スパン 9.00 m
形状 Box + pan
製造者 SPXS
バスタイプ Starlink
フェーズステータス In Orbit
所有者/国 SPXS/US

大規模コンステレーション

Loading constellations...